Tracking 30402 objects as of 12-May-2025
HD Live streaming from Space Station
objects crossing your sky now

COSMOS 2556

Track COSMOS 2556 now!
10-day predictions


NORAD ID: 52713
Int'l Code: 2022-054A
Perigee: 498.3 km
Apogee: 500.3 km
Inclination: 97.6 °
Period: 94.5 minutes
Semi major axis: 6870 km
RCS: Unknown
Launch date: May 19, 2022
Source: Commonwealth of Independent States (former USSR) (CIS)
Launch site: PLESETSK MISSILE AND SPACE COMPLEX (PKMTR)
Your satellite tracking list
Your tracking list is empty




NASA's NSSDC Master Catalog

Two Line Element Set (TLE):
1 52713U 22054A   25132.20685291  .00005228  00000-0  21544-3 0  9993
2 52713  97.5883  70.6567 0001457  68.4316 291.7076 15.24535401165639
Source of the keplerian elements: AFSPC